This is the latest recevied weather packets stored in our database for station/object N9EA. If no packets are shown the sender has not sent any weather packets the latest 10 day(s).
| Time | Temp. | Humidity | Pressure | Rain* | Wind** | Luminosity | Snow |
|---|---|---|---|---|---|---|---|
| 1778098977 | 13.33° C | 37% | 1015.1 hPa | 0 mm | - | 290 W/m² | - |
| 1778098674 | 13.33° C | 36% | 1015.3 hPa | 0 mm | - | 448 W/m² | - |
| 1778098370 | 14.44° C | 35% | 1015.3 hPa | 0 mm | - | 243 W/m² | - |
| 1778098068 | 13.33° C | 36% | 1015.1 hPa | 0 mm | - | 643 W/m² | - |
| 1778097764 | 12.78° C | 38% | 1015.1 hPa | 0 mm | - | 232 W/m² | - |
| 1778097460 | 13.33° C | 37% | 1015.1 hPa | 0 mm | - | 254 W/m² | - |
| 1778097157 | 14.44° C | 36% | 1015.1 hPa | 0 mm | - | 242 W/m² | - |
| 1778096854 | 15° C | 36% | 1015.1 hPa | 0 mm | - | 280 W/m² | - |
| 1778096551 | 13.89° C | 36% | 1015.1 hPa | 0 mm | - | 770 W/m² | - |
| 1778096249 | 14.44° C | 35% | 1015 hPa | 0 mm | - | 464 W/m² | - |
| 1778095945 | 13.89° C | 36% | 1014.9 hPa | 0 mm | - | 884 W/m² | - |
| 1778095642 | 13.89° C | 35% | 1015 hPa | 0 mm | - | 884 W/m² | - |
| 1778095338 | 13.89° C | 36% | 1015.1 hPa | 0 mm | - | 373 W/m² | - |
| 1778095035 | 14.44° C | 36% | 1015.1 hPa | 0 mm | - | 741 W/m² | - |
| 1778094731 | 14.44° C | 35% | 1015 hPa | 0 mm | - | 855 W/m² | - |
| 1778094429 | 13.89° C | 38% | 1015.2 hPa | 0 mm | - | 868 W/m² | - |
| 1778094124 | 13.89° C | 36% | 1015.1 hPa | 0 mm | - | 714 W/m² | - |
| 1778093822 | 13.33° C | 39% | 1015.3 hPa | 0 mm | - | 861 W/m² | - |
| 1778093518 | 13.89° C | 36% | 1015 hPa | 0 mm | - | 329 W/m² | - |
| 1778093211 | 13.89° C | 38% | 1015.4 hPa | 0 mm | - | 898 W/m² | - |
| 1778092908 | 13.89° C | 38% | 1015.4 hPa | 0 mm | - | 328 W/m² | - |
| 1778092604 | 13.33° C | 36% | 1015.2 hPa | 0 mm | - | 349 W/m² | - |
| 1778092300 | 12.78° C | 38% | 1015.1 hPa | 0 mm | - | 849 W/m² | - |
| 1778091998 | 14.44° C | 35% | 1015 hPa | 0 mm | - | 240 W/m² | - |
| 1778091694 | 14.44° C | 37% | 1015.2 hPa | 0 mm | - | 831 W/m² | - |
* Rain latest hour (hover to see other rain measurements)
** Current wind speed in m/s (hover to see current wind gust speed)